Location: Lane
(33.5226°N, 79.8788°W)
Time: 19:21:56
(UTC+00:00)

Explorer 11/Cluster Stage 4 - Pass Details

Date: 03 October 2022
Orbit: 466 x 1247 km, 28.8° (Epoch: 01 December)

Event Time Altitude Azimuth Distance (km) Brightness Sun altitude
Rises 15:28:00 0° 228° (SW) 4,153 10.3 45.5°
Reaches altitude 10° 15:31:13 10° 219° (SW) 3,207 10.0 45.9°
Maximum altitude 15:38:21 34° 159° (SSE) 1,899 10.5 46.7°
Drops below altitude 10° 15:45:04 10° 98° (E) 3,020 10.1 47.5°
Sets 15:48:00 0° 89° (E) 3,885 10.4 47.8°
